Vertical_Velocity
2 -6 -2 -4 -2 -2 -2 0 1 2 -1 -3 -3 -1 -5 -1 5 -0 -5 -5 1 -1 6 3 4 3 5 3 -2 -1 -0 -3 -4 -3 -2 -1 -5 -4 -1 -9 -7 1 1 3
-6 -3 -7 -1 -0 -3 1 -0 -1 -3 1 5 1 -5 -3 -1 -2 -3 -2 -4 -1 7 7 6 1 -0 -1 -9 -3 2 2 -3 -3 6 -3 -1 2 -4 -1 2 4 -0 -0 2
-3 -16 1 0 1 -1 -1 -2 -0 -6 2 -2 -3 -2 -1 -1 1 2 -2 -2 4 -4 -7 3 3 -4 5 -1 -1 -0 -3 1 2 -2 -1 -3 -0 3 -4 -3 1 4 0 -2
-3 -6 -1 1 -0 -5 3 -1 -1 1 0 -4 -0 -5 -1 -1 -3 0 1 1 -2 1 4 7 1 0 -2 -4 5 1 2 -5 4 1 0 -2 -9 -1 -6 1 10 8 6 4
-20 0 1 1 -10 -1 -9 -3 -2 -1 -0 -4 -5 -5 -14 -0 0 0 1 -1 1 -4 -5 -2 -4 -4 2 3 -2 -1 1 4 -1 0 3 -3 -0 0 2 2 7 3 -1 1
-4 -4 2 -2 -1 -4 -2 -1 0 -0 -2 -5 -3 -4 -9 -3 -1 -1 3 -1 3 0 -2 1 1 4 -0 7 2 -1 2 2 -0 -1 0 5 1 -3 -4 1 -2 -1 -1 0
-4 -2 1 -1 0 4 2 -4 -5 -10 -9 -7 -1 -2 -14 -3 -2 -1 -0 2 1 2 -2 -5 -1 -5 6 -3 -2 1 3 -2 -2 -4 -3 -1 0 0 0 -1 2 1 1 1
-1 -15 -3 -2 -6 -13 -2 -8 -8 -5 -3 -4 -0 -3 -20 -3 -2 -2 -1 -3 -1 6 -0 -0 -0 -2 -1 -1 1 -1 -2 -2 -0 -2 -1 -1 2 -3 -3 -1 -1 -2 -4 -4
-1 -6 0 2 -1 -15 -6 -3 -10 -6 -1 -2 -3 -8 -9 0 0 2 1 -5 1 2 -2 -3 0 -0 -1 -3 -4 -6 -2 0 2 -1 -1 -0 -1 -2 -1 -0 -1 -1 -1 -2
-6 -6 -3 -7 -1 -1 -16 -7 -6 -5 -3 -0 -3 -1 -8 -1 -1 -1 -1 -2 -1 5 2 0 1 -0 0 2 0 1 2 0 1 5 2 3 1 1 -1 -2 -1 -1 0 2
-3 -7 -18 -5 -3 -4 -4 -1 -5 -11 -5 -6 -2 -12 -7 -4 -2 -2 -3 -6 -4 6 -2 -4 -2 1 3 4 1 -1 1 -2 3 1 4 1 2 2 2 2 -0 0 -1 -1
-7 -5 -1 -4 -4 -0 -3 -3 -4 -8 -5 -2 -5 -17 -1 -2 -3 -2 -7 -1 -1 9 -4 -2 -3 -3 -2 -0 -0 -1 -0 -2 0 1 5 3 3 3 3 4 3 4 2 2
-4 -3 -4 -17 -18 -7 -1 -0 -1 -1 -3 -1 -5 -13 -1 1 3 -2 -3 0 -4 -6 -3 -1 1 -4 -4 -1 0 -1 -3 -2 -2 -1 -3 2 4 2 2 -1 1 1 2 1
-6 -1 -9 -9 -10 -1 -1 1 0 -5 -3 -2 -5 -3 -0 -0 0 3 2 2 -4 -1 5 0 2 -4 -2 -2 -4 -7 -2 -6 -5 -6 -7 -9 -6 0 2 2 2 1 1 2
-8 -3 -1 -0 -1 1 1 0 -0 -0 -3 -6 -7 -1 -4 -4 -3 -8 -12 8 7 1 -1 -4 -3 -4 1 -3 1 1 4 4 -7 -1 4 -4 2 1 -2 -3 -1 -1 2 1
-1 -4 -0 -1 -1 0 -0 -0 0 -0 -0 -0 -1 -3 1 3 -2 2 3 -2 0 0 1 -3 5 4 -4 -5 -5 -1 0 -6 -2 -6 -2 1 -5 -6 -8 1 -2 -7 -6 -5
-3 -3 -2 -2 0 -2 -8 1 1 -0 -0 -3 -3 -3 -0 -0 1 2 -0 -2 2 -5 -5 -6 -10 -8 -2 -10 -2 -10 -7 -1 -1 -4 6 -0 0 6 2 -1 -2 -2 -0 -0
-2 -2 -1 -1 -3 -5 -14 1 -4 -4 2 -0 -1 0 1 1 5 10 6 -2 2 -1 4 7 -4 4 3 50 44 42 52 95 100 16 4 -1 2 1 -1 -1 -3 1 -1 -0
-3 -3 -2 -6 -1 -9 -0 -1 1 -9 0 1 0 0 1 0 -1 -1 4 10 1 -6 -4 -1 5 34 4 15 13 4 9 -10 -27 -33 100 -0 4 11 7 -1 -2 -1 -2 -3
-2 -3 -9 -1 -3 -4 -6 -3 3 -3 -4 0 -2 1 1 -3 -5 -6 5 -3 -4 -4 -4 -1 5 5 -6 3 14 15 14 -0 -41 -22 4 53 7 -3 10 -4 -1 -3 -2 -2
-1 -2 -4 0 -1 -2 -2 -2 1 -9 -19 2 1 2 1 -2 -1 3 4 1 -5 -3 -6 -8 4 9 -4 -15 -13 -53 -11 -4 -32 -30 14 16 10 6 8 -0 3 3 -5 -3
-5 -6 -1 -2 -2 -6 0 -4 -16 -12 3 2 -2 1 -2 2 -1 7 1 2 4 -2 -2 -0 -6 5 5 6 13 2 -22 -14 -20 -70 98 37 1 -4 8 0 6 -3 -6 1
-8 -11 -12 -10 -12 -2 5 -8 -1 -0 -5 1 0 0 0 0 7 8 -1 2 1 -3 -4 -7 4 2 -1 -7 9 2 4 16 25 9 9 -28 -18 4 -0 -2 -6 -1 -1 3
-2 0 -4 -9 -7 2 1 7 2 2 4 -0 1 -3 2 -1 3 -0 1 3 -2 1 -1 -3 -3 -5 -12 -5 -1 5 6 6 -3 1 -14 -4 7 -3 -2 3 2 -4 -2 -6
-5 -6 -0 1 -0 2 2 0 -1 -2 8 -2 2 3 -1 2 -5 2 6 -2 -2 -2 -0 -0 3 3 1 5 5 1 -5 -0 1 12 1 -3 4 7 6 -1 -6 -3 -2 -1
1 -4 -5 -6 -3 -5 -0 -0 -0 5 -3 8 7 -1 1 -1 3 10 -4 -1 -1 -8 -5 -1 1 -1 -5 -2 11 9 1 -4 7 1 10 6 11 -3 -4 -3 -3 -1 -4 -2
Height
1493 1504 1513 1506 1506 1507 1512 1521 1527 1525 1518 1521 1525 1521 1517 1521 1520 1519 1523 1526 1521 1520 1523 1526 1529 1532 1535 1539 1541 1542 1545 1547 1549 1551 1554 1555 1555 1555 1554 1553 1553 1554 1554 1555
1501 1511 1492 1494 1504 1509 1514 1521 1527 1518 1516 1511 1519 1526 1515 1516 1513 1509 1512 1517 1520 1523 1523 1524 1525 1528 1531 1534 1537 1540 1543 1544 1547 1549 1553 1554 1553 1553 1552 1552 1553 1554 1554 1554
1506 1493 1488 1492 1501 1513 1509 1521 1520 1518 1515 1517 1523 1532 1519 1507 1504 1505 1507 1509 1516 1518 1519 1520 1523 1525 1529 1531 1535 1538 1540 1543 1545 1549 1550 1551 1551 1550 1550 1551 1553 1553 1553 1553
1497 1484 1489 1497 1503 1504 1508 1499 1504 1505 1523 1539 1519 1541 1523 1512 1506 1503 1502 1502 1508 1512 1516 1517 1521 1524 1525 1529 1533 1535 1539 1541 1545 1547 1548 1548 1548 1549 1550 1551 1552 1551 1551 1551
1494 1487 1488 1497 1494 1492 1502 1493 1500 1505 1518 1524 1528 1536 1514 1502 1502 1495 1495 1497 1502 1506 1513 1519 1517 1521 1524 1528 1530 1533 1536 1539 1542 1545 1547 1549 1548 1548 1549 1550 1550 1550 1549 1549
1487 1479 1479 1486 1482 1482 1488 1499 1503 1515 1520 1546 1529 1537 1525 1507 1492 1490 1491 1495 1497 1502 1505 1513 1516 1520 1522 1526 1528 1530 1533 1536 1538 1540 1544 1546 1548 1547 1548 1548 1550 1548 1547 1547
1486 1478 1467 1473 1488 1493 1494 1511 1544 1549 1560 1553 1529 1536 1519 1489 1485 1490 1491 1489 1493 1496 1499 1506 1511 1514 1518 1522 1526 1528 1531 1533 1534 1536 1540 1542 1544 1545 1545 1545 1545 1544 1544 1545
1507 1509 1476 1470 1479 1486 1489 1502 1539 1556 1565 1548 1528 1538 1509 1484 1483 1487 1489 1483 1483 1488 1495 1502 1504 1508 1513 1517 1521 1525 1528 1529 1531 1533 1536 1539 1541 1542 1542 1542 1542 1542 1542 1542
1503 1498 1470 1467 1463 1468 1483 1499 1493 1532 1540 1547 1535 1515 1492 1486 1485 1484 1484 1482 1484 1487 1491 1498 1503 1506 1509 1513 1517 1520 1523 1525 1526 1528 1532 1534 1536 1537 1539 1540 1540 1540 1539 1539
1482 1502 1469 1460 1461 1465 1471 1478 1507 1528 1548 1551 1539 1533 1522 1493 1490 1483 1480 1483 1490 1485 1489 1494 1499 1503 1507 1510 1513 1517 1521 1522 1525 1527 1529 1532 1534 1535 1536 1537 1538 1538 1538 1537
1474 1488 1484 1469 1473 1477 1480 1489 1500 1511 1527 1553 1554 1534 1484 1481 1482 1482 1474 1475 1483 1482 1486 1491 1497 1503 1506 1510 1513 1517 1521 1523 1525 1528 1531 1533 1534 1535 1536 1537 1537 1537 1537 1537
1466 1486 1499 1481 1465 1461 1465 1478 1492 1521 1519 1529 1533 1521 1466 1471 1470 1475 1475 1477 1483 1483 1486 1490 1496 1501 1506 1509 1513 1517 1520 1524 1527 1531 1533 1535 1536 1537 1538 1538 1538 1538 1538 1538
1462 1489 1511 1498 1484 1469 1473 1467 1478 1494 1506 1517 1529 1512 1465 1462 1466 1469 1472 1478 1481 1483 1486 1490 1495 1500 1505 1508 1510 1513 1519 1523 1528 1531 1534 1536 1538 1538 1539 1539 1539 1539 1539 1539
1451 1483 1496 1517 1500 1484 1486 1472 1469 1487 1511 1509 1507 1485 1469 1466 1462 1461 1469 1472 1475 1478 1483 1486 1491 1494 1498 1500 1502 1506 1509 1513 1516 1520 1525 1530 1533 1537 1540 1541 1541 1540 1539 1539
1455 1480 1476 1485 1480 1474 1472 1470 1471 1479 1482 1489 1485 1485 1470 1460 1459 1458 1459 1467 1473 1477 1481 1483 1485 1488 1492 1495 1497 1500 1502 1506 1510 1514 1519 1523 1527 1530 1532 1536 1538 1540 1540 1539
1457 1478 1471 1479 1475 1476 1475 1471 1469 1468 1468 1470 1477 1480 1467 1465 1464 1466 1468 1469 1472 1474 1476 1478 1480 1484 1487 1486 1490 1494 1498 1501 1503 1504 1509 1515 1520 1522 1527 1530 1530 1534 1536 1537
1462 1476 1491 1493 1482 1478 1494 1478 1477 1479 1476 1475 1491 1478 1466 1467 1468 1471 1474 1477 1475 1473 1472 1473 1474 1475 1476 1477 1479 1484 1487 1491 1497 1502 1507 1509 1511 1512 1517 1519 1524 1527 1529 1531
1464 1476 1486 1499 1488 1512 1486 1471 1469 1479 1482 1479 1478 1476 1473 1473 1473 1474 1477 1476 1477 1476 1477 1476 1475 1473 1470 1475 1487 1498 1501 1506 1501 1495 1499 1503 1504 1508 1509 1512 1519 1523 1525 1526
1447 1470 1489 1499 1507 1489 1479 1474 1472 1483 1494 1481 1480 1478 1476 1474 1473 1474 1476 1477 1479 1479 1478 1475 1474 1473 1477 1481 1484 1487 1489 1491 1503 1502 1512 1498 1499 1501 1507 1510 1513 1519 1521 1523
1453 1458 1477 1496 1498 1507 1485 1467 1468 1468 1504 1483 1481 1480 1478 1477 1489 1482 1479 1477 1477 1475 1472 1471 1470 1470 1475 1482 1483 1487 1487 1492 1480 1486 1483 1501 1494 1498 1501 1505 1509 1511 1517 1520
1473 1475 1485 1494 1495 1489 1470 1467 1464 1490 1504 1482 1481 1481 1482 1484 1485 1483 1482 1478 1479 1478 1474 1472 1469 1466 1470 1473 1473 1476 1473 1485 1488 1493 1440 1463 1486 1494 1502 1505 1511 1508 1514 1519
1468 1482 1487 1492 1499 1499 1467 1467 1481 1481 1479 1479 1480 1481 1482 1482 1481 1482 1481 1479 1479 1477 1477 1475 1476 1473 1473 1473 1473 1466 1473 1477 1470 1470 1446 1450 1486 1495 1500 1505 1510 1507 1513 1516
1467 1461 1473 1475 1481 1465 1465 1467 1473 1475 1477 1478 1480 1481 1481 1480 1481 1482 1483 1482 1480 1478 1478 1477 1475 1474 1475 1474 1473 1477 1482 1480 1480 1464 1468 1482 1491 1496 1500 1502 1507 1509 1512 1514
1450 1448 1461 1467 1470 1467 1469 1471 1472 1475 1477 1479 1480 1481 1480 1480 1481 1483 1485 1484 1485 1483 1481 1479 1476 1476 1477 1479 1479 1480 1481 1480 1478 1479 1482 1492 1491 1493 1500 1502 1504 1508 1511 1514
1452 1449 1463 1474 1472 1471 1472 1472 1474 1476 1477 1480 1481 1482 1483 1483 1483 1485 1487 1487 1487 1486 1485 1484 1484 1484 1483 1483 1481 1483 1484 1482 1479 1485 1492 1495 1496 1497 1500 1502 1505 1507 1510 1512
1452 1456 1467 1476 1468 1469 1472 1474 1475 1476 1479 1481 1482 1483 1485 1484 1485 1486 1486 1490 1487 1488 1488 1488 1488 1488 1487 1488 1486 1486 1485 1485 1485 1489 1493 1494 1498 1498 1502 1504 1506 1507 1509 1511